Location: Bukit Lungun
(2.6833°N, 113.9667°E)
Time: 14:42:05
(UTC+00:00)

Cosmos 1932 - Pass Details

Date: 02 March 2021
Orbit: 935 x 994 km, 65.0° (Epoch: 12 April)

Event Time Altitude Azimuth Distance (km) Brightness Sun altitude
Exits shadow 21:10:33 18° 334° (NNW) 2,120 6.0 -21.6°
Maximum altitude 21:15:15 80° 250° (WSW) 951 4.3 -20.4°
Drops below altitude 10° 21:21:25 10° 162° (SSE) 2,643 7.1 -18.9°
Sets 21:23:58 0° 161° (SSE) 3,591 7.8 -18.2°
